This is the latest recevied weather packets stored in our database for station/object KR8N. If no packets are shown the sender has not sent any weather packets the latest 10 day(s).
| Time | Temp. | Humidity | Pressure | Rain* | Wind** | Luminosity | Snow |
|---|---|---|---|---|---|---|---|
| 1777684485 | 8.89° C | 70% | 1017.5 hPa | 0 mm | - | 0 W/m² | - |
| 1777684182 | 8.89° C | 68% | 1017.6 hPa | 0 mm | - | 0 W/m² | - |
| 1777683879 | 8.89° C | 68% | 1017.3 hPa | 0 mm | - | 0 W/m² | - |
| 1777683575 | 8.89° C | 68% | 1017.4 hPa | 0 mm | - | 0 W/m² | - |
| 1777683273 | 9.44° C | 68% | 1017.3 hPa | 0 mm | - | 0 W/m² | - |
| 1777682971 | 9.44° C | 67% | 1017.2 hPa | 0 mm | - | 0 W/m² | - |
| 1777682667 | 9.44° C | 67% | 1017.1 hPa | 0 mm | - | 0 W/m² | - |
| 1777682364 | 9.44° C | 67% | 1017.1 hPa | 0 mm | - | 0 W/m² | - |
| 1777682061 | 10° C | 67% | 1016.9 hPa | 0 mm | - | 0 W/m² | - |
| 1777681757 | 10° C | 67% | 1016.8 hPa | 0 mm | - | 1 W/m² | - |
| 1777681455 | 10° C | 67% | 1016.7 hPa | 0 mm | - | 1 W/m² | - |
| 1777681152 | 10° C | 68% | 1016.8 hPa | 0 mm | - | 2 W/m² | - |
| 1777680850 | 10.56° C | 67% | 1016.6 hPa | 0 mm | - | 3 W/m² | - |
| 1777680547 | 10.56° C | 66% | 1016.1 hPa | 0 mm | - | 6 W/m² | - |
| 1777680246 | 10.56° C | 68% | 1016.1 hPa | 0 mm | - | 7 W/m² | - |
| 1777679941 | 10.56° C | 69% | 1016.3 hPa | 0 mm | - | 7 W/m² | - |
| 1777679637 | 10.56° C | 68% | 1016 hPa | 0 mm | - | 9 W/m² | - |
| 1777679332 | 10.56° C | 68% | 1015.7 hPa | 0 mm | - | 14 W/m² | - |
| 1777679029 | 10.56° C | 68% | 1015.8 hPa | 0 mm | - | 22 W/m² | - |
| 1777678728 | 11.11° C | 68% | 1015.3 hPa | 0 mm | - | 40 W/m² | - |
| 1777678425 | 11.11° C | 68% | 1015.5 hPa | 0 mm | - | 34 W/m² | - |
| 1777678120 | 11.11° C | 67% | 1015.3 hPa | 0 mm | - | 43 W/m² | - |
| 1777677818 | 11.67° C | 68% | 1015.3 hPa | 0 mm | - | 55 W/m² | - |
| 1777677515 | 11.67° C | 66% | 1015.3 hPa | 0 mm | - | 68 W/m² | - |
| 1777677213 | 11.67° C | 67% | 1015.3 hPa | 0 mm | - | 83 W/m² | - |
* Rain latest hour (hover to see other rain measurements)
** Current wind speed in m/s (hover to see current wind gust speed)